Regional Weather Roundup
Issued by NWS Columbia, SC

Home | Current Version | Previous Version | Text Only | Print | Product List | Glossary On
Versions: 1 2 3 4 5 6 7 8 9 10 11 12 13 14 15 16 17 18 19 20 21 22 23 24 25 26 27 28 29 30 31 32 33 34 35 36 37 38 39 40 41 42 43 44 45 46 47 48 49 50
000
ASUS42 KCAE 210910
RWRCAE
REGIONAL WEATHER ROUNDUP
NATIONAL WEATHER SERVICE COLUMBIA SC
400 AM EST TUE FEB 21 2017

NOTE: "FAIR" INDICATES FEW OR NO CLOUDS BELOW 12,000 FEET WITH NO
SIGNIFICANT WEATHER AND/OR OBSTRUCTIONS TO VISIBILITY.

NOT ALL STATIONS ARE QUALITY CONTROLLED BY THE NATIONAL
WEATHER SERVICE. USE DATA WITH CAUTION...ESPECIALLY
DEWPOINT OBSERVATIONS.

SCZ001>056-GAZ040-063>065-077-211000-
...UPSTATE SOUTH CAROLINA...

CITY           SKY/WX    TMP DP  RH WIND       PRES   REMARKS
ANDERSON       PTCLDY    50  42  74 NE6       30.16S
LIBERTY        MOSUNNY   43  41  90 E5        30.16S
SPARTANBURG    PTCLDY    46  39  76 CALM      30.17F
CLEMSON        PTCLDY    54  44  69 CALM      30.18R
GREENVILLE     CLOUDY    54  39  57 N3        30.18S
GREENWOOD      CLOUDY    46  42  86 CALM      30.18S
GREER          CLOUDY    50  39  66 CALM      30.17S
ROCK HILL      PTCLDY    45  41  86 CALM      30.20R
CHESTER        CLOUDY    46  43  87 CALM      30.20S
LAURENS        PTSUNNY   45  43  93 E5        30.17F


...CENTRAL SOUTH CAROLINA...

CITY           SKY/WX    TMP DP  RH WIND       PRES   REMARKS
COLUMBIA APT   CLOUDY    51  45  79 CALM      30.18R
COLUMBIA OWENS CLOUDY    50  46  86 CALM      30.19S
MCENTIRE ANGB  CLOUDY    51  48  87 E5        30.18S
ORANGEBURG     CLOUDY    52  48  86 E5        30.18S
SUMTER SHAW    PTCLDY    48  46  93 NE5       30.17F
AIKEN          FAIR      46  43  87 NE3       30.20S
BARNWELL       FAIR      52  50  93 CALM      30.16S
MANNING        FAIR      50  43  76 MISG      30.18F
CAMDEN         FAIR      50  48  93 CALM      30.20S
LANCASTER      CLOUDY    50  50 100 NE3       30.20S
WINNSBORO      CLOUDY    54  45  71 CALM      30.18S


...EASTERN AND COASTAL SOUTH CAROLINA...

CITY           SKY/WX    TMP DP  RH WIND       PRES   REMARKS
N MYRTLE BCH   PTCLDY    53  48  83 NE8       30.20S
CONWAY         FAIR      48  46  93 NE5       30.20F
MARION         FAIR      50  45  81 E3        30.21S
HARTSVILLE     FAIR      50  46  87 E5        30.20S
FLORENCE       CLOUDY    50  47  89 E5        30.21S
DARLINGTON     CLOUDY    48  46  93 NE6       30.21S FOG
CHARLESTON APT PTCLDY    54  52  93 NE6       30.16F FOG
MOUNT PLEASANT LGT RAIN  52  52 100 CALM      30.17S
WALTERBORO     CLOUDY    52  50  93 NE3       30.17S
BEAUFORT       MOCLDY    57  56  96 CALM      30.15S


...EASTERN GEORGIA...

CITY           SKY/WX    TMP DP  RH WIND       PRES   REMARKS
AUGUSTA BUSH F CLOUDY    49  46  90 CALM      30.16S FOG
AUGUSTA DANIEL MOCLDY    57  46  66 E6        30.16S
THOMSON        MOCLDY    49  49  99 CALM      30.19F
WASHINGTON     FAIR      52  46  82 E5        30.14F
CLAXTON        FAIR     N/A N/A N/A CALM      30.14S
SYLVANIA       CLOUDY   N/A N/A N/A CALM      30.15F
STATESBORO     CLOUDY    51  51 100 CALM      30.14F
SAVANNAH       MOCLDY    58  54  86 E3        30.14F


...SOUTHERN NORTH CAROLINA...

CITY           SKY/WX    TMP DP  RH WIND       PRES   REMARKS
CHARLOTTE      MOCLDY    54  43  66 SE6       30.20R
MONROE         PTCLDY    50  44  80 CALM      30.20R
WADESBORO      PTSUNNY   44  40  86 CALM      30.21S
ROCKINGHAM     PTSUNNY   51  46  81 CALM      30.22S
RUTHERFORDTON  MOCLDY    47  36  66 CALM      30.19F
ASHEVILLE      CLOUDY    41  35  79 CALM      30.20S

$$



USA.gov is the U.S. government's official web portal to all federal, state and local government web resources and services.